(°C)
(°C)
JJI
J
J
J
J
JJI
JJI
(km/h)
6-18
6-17
6-18
6-17
6-21
6-21
6-22
(mm)
0
0
0
0
0
0
0
(%)
0
0
0
0
0
0
0

Podizanje Sunca

/ -45.2°
sun-icon
UV 0
07:56
18:03
Opadajući mesec (201°)
18:40
09:37

METAR za 55.27°S 86.11°I (UNEE)

Vreme Uslovi Temperatura/
Tačka rose
Vetar Vidljivost Prognoza Oblaci Pritisak Promena Neobrađeno
VFR 7°C / -4°C 140º 6kt >10km - Clouds and Visibility OK 1011 No Significant change UNEE 211830Z 14003MPS CAVOK 07/M04 Q1011 R23/CLRD60 NOSIG RMK QFE735
VFR 8°C / -4°C 150º 6kt >10km - Clouds and Visibility OK 1011 No Significant change UNEE 211800Z 15003MPS CAVOK 08/M04 Q1011 R23/CLRD60 NOSIG RMK QFE735
VFR 9°C / -4°C 160º 6kt >10km - Clouds and Visibility OK 1011 No Significant change UNEE 211730Z 16003MPS CAVOK 09/M04 Q1011 R23/CLRD60 NOSIG RMK QFE735
VFR 9°C / -4°C 150º 6kt >10km - Clouds and Visibility OK 1011 No Significant change UNEE 211700Z 15003MPS CAVOK 09/M04 Q1011 R23/CLRD60 NOSIG RMK QFE736
VFR 9°C / -3°C 140º 6kt >10km - Clouds and Visibility OK 1011 No Significant change UNEE 211630Z 14003MPS CAVOK 09/M03 Q1011 R23/CLRD60 NOSIG RMK QFE736
VFR 9°C / -3°C 150º 6kt >10km - Clouds and Visibility OK 1011 No Significant change UNEE 211600Z 15003MPS CAVOK 09/M03 Q1011 R23/CLRD60 NOSIG RMK QFE736
VFR 9°C / -3°C 160º 6kt >10km - Clouds and Visibility OK 1012 No Significant change UNEE 211530Z 16003MPS CAVOK 09/M03 Q1012 R23/CLRD60 NOSIG RMK QFE736
VFR 9°C / -3°C 140º 4kt >10km - Clouds and Visibility OK 1012 No Significant change UNEE 211500Z 14002MPS CAVOK 09/M03 Q1012 R23/CLRD60 NOSIG RMK QFE736
VFR 9°C / -3°C 140º 4kt >10km - Clouds and Visibility OK 1012 No Significant change UNEE 211430Z 14002MPS CAVOK 09/M03 Q1012 R23/CLRD60 NOSIG RMK QFE736
VFR 9°C / -3°C 150º 6kt >10km - Clouds and Visibility OK 1012 No Significant change UNEE 211400Z 15003MPS CAVOK 09/M03 Q1012 R23/CLRD60 NOSIG RMK QFE736
VFR 9°C / -3°C 140º 6kt >10km - Clouds and Visibility OK 1012 No Significant change UNEE 211330Z 14003MPS CAVOK 09/M03 Q1012 R23/CLRD60 NOSIG RMK QFE736
VFR 10°C / -4°C 150º 4kt >10km - Clouds and Visibility OK 1012 No Significant change UNEE 211300Z 15002MPS CAVOK 10/M04 Q1012 R23/CLRD60 NOSIG RMK QFE736
VFR 11°C / -3°C 160º 6kt >10km - Clouds and Visibility OK 1012 No Significant change UNEE 211230Z 16003MPS CAVOK 11/M03 Q1012 R23/CLRD60 NOSIG RMK QFE736
VFR 11°C / -3°C 160º 6kt >10km - Clouds and Visibility OK 1012 No Significant change UNEE 211200Z 16003MPS CAVOK 11/M03 Q1012 R23/CLRD60 NOSIG RMK QFE736
VFR 12°C / -3°C 160º 6kt >10km - Clouds and Visibility OK 1012 No Significant change UNEE 211130Z 16003MPS CAVOK 12/M03 Q1012 R23/CLRD60 NOSIG RMK QFE736
VFR 12°C / -3°C 160º 6kt >10km - Clouds and Visibility OK 1011 No Significant change UNEE 211100Z 16003MPS CAVOK 12/M03 Q1011 R23/CLRD60 NOSIG RMK QFE736
VFR 13°C / -3°C 170º 6kt >10km - Clouds and Visibility OK 1011 No Significant change UNEE 211030Z 17003MPS CAVOK 13/M03 Q1011 R23/CLRD60 NOSIG RMK QFE736
VFR 14°C / -3°C 170º 6kt >10km - Clouds and Visibility OK 1011 No Significant change UNEE 211000Z 17003MPS CAVOK 14/M03 Q1011 R23/CLRD60 NOSIG RMK QFE736
VFR 15°C / -3°C 170º 8kt >10km - Clouds and Visibility OK 1011 No Significant change UNEE 210930Z 17004MPS CAVOK 15/M03 Q1011 R23/CLRD60 NOSIG RMK QFE736
VFR 15°C / -3°C 160º 10kt >10km - Clouds and Visibility OK 1011 No Significant change UNEE 210900Z 16005MPS CAVOK 15/M03 Q1011 R23/CLRD60 NOSIG RMK QFE736
VFR 16°C / -4°C 160º 10kt >10km - Clouds and Visibility OK 1012 No Significant change UNEE 210830Z 16005MPS CAVOK 16/M04 Q1012 R23/CLRD60 NOSIG RMK QFE736
VFR 16°C / -3°C 170º 12kt >10km - Clouds and Visibility OK 1012 No Significant change UNEE 210800Z 17006MPS CAVOK 16/M03 Q1012 R23/CLRD60 NOSIG RMK QFE736
VFR 16°C / -4°C 170º 10kt >10km - Clouds and Visibility OK 1012 No Significant change UNEE 210730Z 17005MPS CAVOK 16/M04 Q1012 R23/CLRD60 NOSIG RMK QFE736
VFR 15°C / -4°C 180º 12kt >10km - Clouds and Visibility OK 1012 No Significant change UNEE 210700Z 18006MPS CAVOK 15/M04 Q1012 R23/CLRD60 NOSIG RMK QFE736

VFR

7°C / -4°C

[Više]
Vetar 140º 6kt
Vidljivost >10km
Prognoza -
Oblaci Clouds and Visibility OK
Pritisak 1011
Promena No Significant change
Neobrađeno UNEE 211830Z 14003MPS CAVOK 07/M04 Q1011 R23/CLRD60 NOSIG RMK QFE735

VFR

8°C / -4°C

[Više]
Vetar 150º 6kt
Vidljivost >10km
Prognoza -
Oblaci Clouds and Visibility OK
Pritisak 1011
Promena No Significant change
Neobrađeno UNEE 211800Z 15003MPS CAVOK 08/M04 Q1011 R23/CLRD60 NOSIG RMK QFE735

VFR

9°C / -4°C

[Više]
Vetar 160º 6kt
Vidljivost >10km
Prognoza -
Oblaci Clouds and Visibility OK
Pritisak 1011
Promena No Significant change
Neobrađeno UNEE 211730Z 16003MPS CAVOK 09/M04 Q1011 R23/CLRD60 NOSIG RMK QFE735

VFR

9°C / -4°C

[Više]
Vetar 150º 6kt
Vidljivost >10km
Prognoza -
Oblaci Clouds and Visibility OK
Pritisak 1011
Promena No Significant change
Neobrađeno UNEE 211700Z 15003MPS CAVOK 09/M04 Q1011 R23/CLRD60 NOSIG RMK QFE736

VFR

9°C / -3°C

[Više]
Vetar 140º 6kt
Vidljivost >10km
Prognoza -
Oblaci Clouds and Visibility OK
Pritisak 1011
Promena No Significant change
Neobrađeno UNEE 211630Z 14003MPS CAVOK 09/M03 Q1011 R23/CLRD60 NOSIG RMK QFE736

VFR

9°C / -3°C

[Više]
Vetar 150º 6kt
Vidljivost >10km
Prognoza -
Oblaci Clouds and Visibility OK
Pritisak 1011
Promena No Significant change
Neobrađeno UNEE 211600Z 15003MPS CAVOK 09/M03 Q1011 R23/CLRD60 NOSIG RMK QFE736

VFR

9°C / -3°C

[Više]
Vetar 160º 6kt
Vidljivost >10km
Prognoza -
Oblaci Clouds and Visibility OK
Pritisak 1012
Promena No Significant change
Neobrađeno UNEE 211530Z 16003MPS CAVOK 09/M03 Q1012 R23/CLRD60 NOSIG RMK QFE736

VFR

9°C / -3°C

[Više]
Vetar 140º 4kt
Vidljivost >10km
Prognoza -
Oblaci Clouds and Visibility OK
Pritisak 1012
Promena No Significant change
Neobrađeno UNEE 211500Z 14002MPS CAVOK 09/M03 Q1012 R23/CLRD60 NOSIG RMK QFE736

VFR

9°C / -3°C

[Više]
Vetar 140º 4kt
Vidljivost >10km
Prognoza -
Oblaci Clouds and Visibility OK
Pritisak 1012
Promena No Significant change
Neobrađeno UNEE 211430Z 14002MPS CAVOK 09/M03 Q1012 R23/CLRD60 NOSIG RMK QFE736

VFR

9°C / -3°C

[Više]
Vetar 150º 6kt
Vidljivost >10km
Prognoza -
Oblaci Clouds and Visibility OK
Pritisak 1012
Promena No Significant change
Neobrađeno UNEE 211400Z 15003MPS CAVOK 09/M03 Q1012 R23/CLRD60 NOSIG RMK QFE736

VFR

9°C / -3°C

[Više]
Vetar 140º 6kt
Vidljivost >10km
Prognoza -
Oblaci Clouds and Visibility OK
Pritisak 1012
Promena No Significant change
Neobrađeno UNEE 211330Z 14003MPS CAVOK 09/M03 Q1012 R23/CLRD60 NOSIG RMK QFE736

VFR

10°C / -4°C

[Više]
Vetar 150º 4kt
Vidljivost >10km
Prognoza -
Oblaci Clouds and Visibility OK
Pritisak 1012
Promena No Significant change
Neobrađeno UNEE 211300Z 15002MPS CAVOK 10/M04 Q1012 R23/CLRD60 NOSIG RMK QFE736

VFR

11°C / -3°C

[Više]
Vetar 160º 6kt
Vidljivost >10km
Prognoza -
Oblaci Clouds and Visibility OK
Pritisak 1012
Promena No Significant change
Neobrađeno UNEE 211230Z 16003MPS CAVOK 11/M03 Q1012 R23/CLRD60 NOSIG RMK QFE736

VFR

11°C / -3°C

[Više]
Vetar 160º 6kt
Vidljivost >10km
Prognoza -
Oblaci Clouds and Visibility OK
Pritisak 1012
Promena No Significant change
Neobrađeno UNEE 211200Z 16003MPS CAVOK 11/M03 Q1012 R23/CLRD60 NOSIG RMK QFE736

VFR

12°C / -3°C

[Više]
Vetar 160º 6kt
Vidljivost >10km
Prognoza -
Oblaci Clouds and Visibility OK
Pritisak 1012
Promena No Significant change
Neobrađeno UNEE 211130Z 16003MPS CAVOK 12/M03 Q1012 R23/CLRD60 NOSIG RMK QFE736

VFR

12°C / -3°C

[Više]
Vetar 160º 6kt
Vidljivost >10km
Prognoza -
Oblaci Clouds and Visibility OK
Pritisak 1011
Promena No Significant change
Neobrađeno UNEE 211100Z 16003MPS CAVOK 12/M03 Q1011 R23/CLRD60 NOSIG RMK QFE736

VFR

13°C / -3°C

[Više]
Vetar 170º 6kt
Vidljivost >10km
Prognoza -
Oblaci Clouds and Visibility OK
Pritisak 1011
Promena No Significant change
Neobrađeno UNEE 211030Z 17003MPS CAVOK 13/M03 Q1011 R23/CLRD60 NOSIG RMK QFE736

VFR

14°C / -3°C

[Više]
Vetar 170º 6kt
Vidljivost >10km
Prognoza -
Oblaci Clouds and Visibility OK
Pritisak 1011
Promena No Significant change
Neobrađeno UNEE 211000Z 17003MPS CAVOK 14/M03 Q1011 R23/CLRD60 NOSIG RMK QFE736

VFR

15°C / -3°C

[Više]
Vetar 170º 8kt
Vidljivost >10km
Prognoza -
Oblaci Clouds and Visibility OK
Pritisak 1011
Promena No Significant change
Neobrađeno UNEE 210930Z 17004MPS CAVOK 15/M03 Q1011 R23/CLRD60 NOSIG RMK QFE736

VFR

15°C / -3°C

[Više]
Vetar 160º 10kt
Vidljivost >10km
Prognoza -
Oblaci Clouds and Visibility OK
Pritisak 1011
Promena No Significant change
Neobrađeno UNEE 210900Z 16005MPS CAVOK 15/M03 Q1011 R23/CLRD60 NOSIG RMK QFE736

VFR

16°C / -4°C

[Više]
Vetar 160º 10kt
Vidljivost >10km
Prognoza -
Oblaci Clouds and Visibility OK
Pritisak 1012
Promena No Significant change
Neobrađeno UNEE 210830Z 16005MPS CAVOK 16/M04 Q1012 R23/CLRD60 NOSIG RMK QFE736

VFR

16°C / -3°C

[Više]
Vetar 170º 12kt
Vidljivost >10km
Prognoza -
Oblaci Clouds and Visibility OK
Pritisak 1012
Promena No Significant change
Neobrađeno UNEE 210800Z 17006MPS CAVOK 16/M03 Q1012 R23/CLRD60 NOSIG RMK QFE736

VFR

16°C / -4°C

[Više]
Vetar 170º 10kt
Vidljivost >10km
Prognoza -
Oblaci Clouds and Visibility OK
Pritisak 1012
Promena No Significant change
Neobrađeno UNEE 210730Z 17005MPS CAVOK 16/M04 Q1012 R23/CLRD60 NOSIG RMK QFE736

VFR

15°C / -4°C

[Više]
Vetar 180º 12kt
Vidljivost >10km
Prognoza -
Oblaci Clouds and Visibility OK
Pritisak 1012
Promena No Significant change
Neobrađeno UNEE 210700Z 18006MPS CAVOK 15/M04 Q1012 R23/CLRD60 NOSIG RMK QFE736

TAF za 55.27°S 86.11°I (UNEE)

From till


From till Wind 160º 6kt. Gust 16kt. Visibility 10km or more. Broken Clouds 4000ft.
Becoming from till Wind 220º 12kt. Gust 25kt. Visibility 10km or more. Broken Clouds 4000ft.

Neobrađeno: TAF UNEE 211700Z 2118/2218 16003G08MPS 9999 BKN040CB BECMG 2203/2205 22006G13MPS

Trenutni satelitski snimci i slike kiše za 55.27°S 86.11°I

Marker lokacije postavljen je na 55.27°S 86.11°I. [Više]

Satelitski snimci u realnom vremenu kombinuju vidljivu svetlost tokom dana sa infracrvenim zračenjem tokom noći. Noću slika nije tamna jer infracrveno zračenje može otkriti temperaturne razlike. Nažalost, niski oblaci i magla teško se mogu razlikovati od temperature zemlje tako da mogu biti skoro nevidljivi tokom noći. Meteosat satelitski snimci za Evropu se ažuriraju u realnom vremenu na svakih 5 minuta. Slnimci GOES-16/GOES-17 (Severna i Južna Amerika) and Himawari (Azia) ažuriraju se na svakih 10 minuta.

Autorsko pravo 2021 EUMETSAT / meteoblue. / Autorsko pravo 2021 meteoblue

Radar i padavine kratka prognoza za 55.27°S 86.11°I

Rominjati
Svjetlo
Umjereno
Teška
Vrlo teško
Zdravo

Marker lokacije postavljen je na 55.27°S 86.11°I. Ova animacija prikazuje radar padavina za poslednji sat, kao i 1h prognozu. Пљусак кише или слаб снег може бити невидљив за радар. Интензитет падавина је кодиран у боји, у распону од светло плаве до наранџасте.